Date,TemperatureHighF,TemperatureAvgF,TemperatureLowF,DewpointHighF,DewpointAvgF,DewpointLowF,HumidityHigh,HumidityAvg,HumidityLow,PressureMaxIn,PressureMinIn,WindSpeedMaxMPH,WindSpeedAvgMPH,GustSpeedMaxMPH,PrecipitationSumIn
2013-1-1,47.1,44.2,39.4,39.6,37.5,33.2,82,77,72,29.90,29.27,20,8,20,0.08
2013-1-2,53.2,49.8,43.5,48.5,46.1,37.2,91,87,74,30.09,29.87,20,6,20,0.17
2013-1-3,51.4,50.4,49.6,47.6,46.4,45.5,89,86,84,30.39,30.09,11,5,11,0.00
2013-1-4,50.4,49.1,47.8,46.2,44.7,43.9,88,85,80,30.43,30.38,12,4,12,0.00
2013-1-5,51.3,49.9,48.6,46.4,45.0,43.2,88,83,79,30.40,30.22,13,5,13,0.04
2013-1-6,50.5,48.0,43.5,45.6,44.2,39.0,90,86,78,30.37,30.14,11,4,11,0.11
2013-1-7,50.7,49.7,48.6,47.7,46.6,45.0,90,89,87,30.14,29.93,8,3,8,0.30
2013-1-8,51.6,47.8,44.2,48.1,41.6,37.8,90,79,74,30.13,29.89,12,5,12,0.05
2013-1-9,48.7,43.4,37.0,40.5,37.8,32.5,87,81,71,30.12,30.01,10,3,10,0.00
2013-1-10,46.2,35.9,32.2,36.8,31.5,28.4,90,84,65,30.00,29.87,4,1,4,0.01
2013-1-11,49.8,40.8,35.8,39.6,34.8,31.7,91,79,64,29.93,29.87,10,4,10,0.04
2013-1-12,45.7,38.4,35.2,34.2,30.5,28.7,85,73,63,30.05,29.84,8,2,8,0.01
2013-1-13,41.4,38.1,35.1,38.1,33.8,27.5,89,85,72,30.06,29.92,11,3,11,0.17
2013-1-14,42.4,37.0,32.5,39.6,29.9,26.3,91,75,67,29.91,29.69,14,3,14,0.12
2013-1-15,42.4,33.3,29.7,35.6,26.2,22.9,85,75,64,29.84,29.76,8,3,8,0.01
2013-1-16,36.1,34.0,28.8,25.6,24.6,22.0,78,68,63,29.89,29.73,6,2,6,0.00
2013-1-17,40.5,36.4,34.0,25.9,24.2,20.7,68,61,52,29.89,29.66,16,8,16,0.00
2013-1-18,36.3,33.5,31.5,25.8,20.3,18.0,68,58,53,29.66,29.40,23,11,23,0.00
2013-1-19,38.1,34.8,31.5,28.2,25.2,20.2,74,68,57,29.64,29.44,14,3,14,0.00
2013-1-20,35.1,34.3,31.3,25.3,23.4,22.1,75,64,60,29.62,29.44,12,4,12,0.00
2013-1-21,36.3,35.4,33.3,28.4,26.9,23.4,82,71,64,29.43,29.33,16,7,16,0.00
2013-1-22,37.6,33.2,28.2,28.9,25.2,21.3,84,72,64,29.74,29.40,9,2,9,0.02
2013-1-23,38.5,34.8,29.1,28.3,26.8,24.3,83,73,64,29.88,29.71,8,2,8,0.00
2013-1-24,42.6,37.4,33.3,30.9,27.2,25.6,79,66,54,29.97,29.87,14,5,14,0.00
2013-1-25,41.5,37.7,35.4,37.7,30.8,25.9,86,76,66,29.85,29.31,15,6,15,0.14
2013-1-26,49.8,44.4,40.6,45.2,37.9,30.5,86,78,65,29.49,28.84,20,7,20,0.27
2013-1-27,50.2,42.1,39.4,45.6,34.6,32.7,86,75,68,29.19,28.72,24,10,24,0.14
2013-1-28,48.4,45.1,41.0,41.2,38.5,33.3,82,77,71,29.26,28.83,23,9,23,0.20
2013-1-29,53.2,48.0,45.1,47.5,39.9,33.8,85,74,62,29.27,28.89,24,11,24,0.12
2013-1-30,47.3,44.9,41.2,37.5,34.6,29.9,78,67,51,29.62,29.10,30,13,30,0.02
2013-1-31,47.8,45.1,39.0,37.9,35.7,33.4,83,70,60,29.59,29.12,38,14,38,0.30
2013-2-1,45.5,39.5,31.6,37.7,29.9,23.3,77,68,61,29.79,29.30,16,3,16,0.00
2013-2-2,45.5,38.9,28.2,33.7,28.1,20.7,78,65,51,30.15,29.79,13,3,13,0.01
2013-2-3,49.8,47.7,39.7,44.7,41.0,34.2,88,78,66,29.97,29.53,23,9,23,0.14
2013-2-4,48.7,39.9,34.3,44.0,30.3,24.9,84,69,53,29.57,29.32,31,16,31,0.20
2013-2-5,45.7,41.9,34.7,37.7,33.7,25.0,87,73,61,29.57,29.05,25,10,25,0.09
2013-2-6,48.4,39.9,33.1,28.6,26.4,22.9,71,59,45,30.11,29.58,12,4,12,0.00
2013-2-7,43.0,38.8,34.3,33.9,30.6,25.6,82,72,63,30.11,29.94,8,2,8,0.00
2013-2-8,45.1,42.4,37.0,37.5,34.4,31.1,86,74,62,30.13,30.03,10,2,10,0.01
2013-2-9,43.0,41.3,38.8,39.1,37.5,35.3,88,86,85,30.04,29.70,8,2,8,0.00
2013-2-10,39.0,37.4,35.4,35.3,31.9,30.3,87,80,78,29.69,29.29,17,6,17,0.02
2013-2-11,43.9,38.1,33.4,32.9,26.2,22.9,80,62,50,29.85,29.36,19,6,19,0.01
2013-2-12,40.3,35.7,32.7,28.1,25.5,23.9,72,66,58,30.00,29.85,11,3,11,0.00
2013-2-13,42.1,36.0,32.7,37.6,29.0,23.5,84,76,61,29.97,29.45,22,7,22,0.26
2013-2-14,46.9,45.1,43.9,40.1,38.6,36.3,84,78,71,29.14,28.81,12,6,12,0.06
2013-2-15,53.2,45.4,40.3,39.5,36.8,34.6,80,72,59,29.37,29.14,12,4,12,0.00
2013-2-16,49.1,45.1,41.0,42.5,38.6,35.2,84,78,73,29.37,29.32,4,2,4,0.00
2013-2-17,53.1,44.5,34.2,38.4,34.4,26.7,75,68,54,29.36,29.29,9,4,9,0.00
2013-2-18,50.2,38.2,31.3,32.4,28.1,23.6,76,67,50,29.39,29.31,5,2,5,0.00
2013-2-19,53.4,37.1,27.0,32.6,26.9,19.1,79,68,42,29.40,29.33,4,2,4,0.00
2013-2-20,42.8,37.1,31.6,34.4,29.2,22.5,83,73,63,29.55,29.37,11,4,11,0.00
2013-2-21,43.5,36.4,27.7,25.1,22.3,18.5,74,56,46,30.22,29.52,13,5,13,0.00
2013-2-22,37.8,35.8,32.9,22.5,19.9,17.6,56,52,48,30.25,30.18,8,2,8,0.00
2013-2-23,45.1,35.7,30.0,27.4,23.3,19.2,76,61,46,30.33,30.19,8,2,8,0.00
2013-2-24,43.9,37.7,28.8,31.4,28.6,22.5,79,70,59,30.43,30.31,6,1,6,0.00
2013-2-25,49.8,39.9,27.9,33.5,28.9,22.2,84,65,51,30.57,30.42,10,2,10,0.00
2013-2-26,54.3,42.5,32.4,34.8,30.7,26.0,83,64,43,30.64,30.53,14,3,14,0.00
2013-2-27,45.3,37.4,27.5,35.8,31.7,21.8,86,80,66,30.63,30.54,5,2,5,0.01
2013-2-28,56.8,46.5,32.9,43.0,37.9,28.9,90,72,52,30.54,30.44,5,1,5,0.00
2013-3-1,53.2,43.0,35.4,37.4,33.0,29.7,85,69,46,30.48,30.40,6,2,6,0.00
2013-3-2,52.0,45.4,34.9,41.5,37.9,29.3,85,75,63,30.40,30.21,11,3,11,0.00
2013-3-3,47.3,43.6,37.4,39.6,35.2,30.5,84,72,64,30.20,30.03,5,2,5,0.00
2013-3-4,48.0,41.0,34.5,33.5,31.6,27.7,78,69,55,30.04,29.69,11,3,11,0.00
2013-3-5,54.1,44.0,31.6,35.7,30.7,25.3,78,60,41,29.69,29.55,7,2,7,0.00
2013-3-6,45.0,40.2,35.1,35.3,31.8,26.5,81,72,63,29.61,29.54,17,6,17,0.01
2013-3-7,47.5,44.0,40.3,41.1,37.4,34.4,84,78,72,29.54,29.42,18,6,18,0.22
2013-3-8,44.1,41.8,39.7,35.3,33.9,33.1,79,73,68,29.61,29.41,24,9,24,0.02
2013-3-9,41.9,39.5,36.7,33.6,30.8,22.1,78,71,55,29.83,29.59,21,8,21,0.01
2013-3-10,43.2,34.8,27.3,28.8,23.1,17.0,75,62,50,30.05,29.80,27,6,27,0.00
2013-3-11,40.5,30.8,24.4,20.6,15.8,12.2,72,54,39,30.11,30.03,15,4,15,0.00
2013-3-12,48.4,35.0,22.3,31.5,21.1,11.0,70,57,37,30.09,29.85,10,3,10,0.00
2013-3-13,51.1,38.9,29.7,30.0,21.5,16.3,72,52,26,29.94,29.80,5,2,5,0.00
2013-3-14,46.4,39.2,27.3,38.4,32.1,16.4,83,76,63,29.94,29.55,10,4,10,0.02
2013-3-15,50.7,42.4,35.6,40.0,34.2,29.7,83,73,55,29.52,29.29,12,4,12,0.08
2013-3-16,41.4,38.0,34.9,34.0,32.0,29.0,82,79,73,29.31,29.16,6,2,6,0.07
2013-3-17,44.2,37.9,34.0,37.6,32.1,28.0,83,79,74,29.19,29.05,9,2,9,0.06
2013-3-18,44.4,37.9,33.6,34.9,30.0,24.7,85,73,62,29.47,29.17,19,6,19,0.05
2013-3-19,40.8,36.8,33.8,31.5,28.7,24.9,76,72,65,29.55,29.43,17,7,17,0.01
2013-3-20,41.9,36.9,30.6,30.4,27.0,23.0,75,67,56,29.97,29.55,16,6,16,0.00
2013-3-21,43.5,35.1,28.4,25.6,22.2,20.2,75,60,43,29.98,29.85,22,9,22,0.00
2013-3-22,37.2,35.9,33.4,26.8,23.9,20.6,76,62,52,29.88,29.74,29,16,29,0.01
2013-3-23,36.3,34.7,33.3,26.7,21.9,18.9,76,59,54,30.07,29.86,25,14,25,0.02
2013-3-24,41.9,35.8,33.3,22.7,19.3,16.9,56,51,43,30.20,30.05,31,13,31,0.00
2013-3-25,40.6,35.2,31.8,23.2,20.0,16.9,64,54,45,30.20,30.16,24,8,24,0.00
2013-3-26,42.3,35.2,30.0,25.4,21.0,18.1,72,56,43,30.17,30.06,18,5,18,0.00
2013-3-27,45.9,36.7,29.3,29.4,23.7,18.8,76,60,42,30.10,29.99,17,4,17,0.00
2013-3-28,44.4,37.0,30.6,29.2,22.2,17.3,76,57,34,30.04,29.96,14,6,14,0.02
2013-3-29,49.5,39.0,28.0,27.4,21.4,17.7,73,50,30,29.96,29.83,14,6,14,0.00
2013-3-30,46.8,40.1,26.6,27.0,22.0,16.4,73,49,34,29.94,29.88,11,4,11,0.00
2013-3-31,47.7,39.9,30.6,22.7,18.9,11.8,60,44,28,29.94,29.88,14,6,14,0.00
2013-4-1,48.4,37.1,27.7,22.5,20.0,16.8,68,51,33,30.01,29.89,17,6,17,0.00
2013-4-2,49.3,37.6,26.2,26.3,22.0,15.5,66,54,38,30.18,30.00,11,4,11,0.00
2013-4-3,53.4,39.8,27.0,29.1,22.6,18.2,76,53,28,30.23,30.16,11,4,11,0.00
2013-4-4,54.0,44.4,30.6,29.6,23.4,16.6,68,45,25,30.22,30.15,15,4,15,0.01
2013-4-5,54.9,42.1,33.3,30.2,25.1,19.7,75,53,26,30.20,30.15,11,3,11,0.00
2013-4-6,52.5,41.0,27.3,35.5,28.2,17.1,73,61,44,30.22,30.13,10,3,10,0.06
2013-4-7,53.2,41.9,32.4,34.0,29.9,23.7,75,63,43,30.14,29.90,8,3,8,0.00
2013-4-8,46.4,39.8,33.3,30.4,24.9,19.1,75,56,42,29.89,29.64,16,7,16,0.00
2013-4-9,52.0,40.6,31.6,26.7,22.5,17.3,66,50,28,29.63,29.54,13,6,13,0.00
2013-4-10,58.6,46.3,32.0,32.7,29.1,22.6,75,53,27,29.62,29.49,15,4,15,0.00
2013-4-11,47.1,42.3,36.7,37.6,33.8,31.1,85,72,60,29.49,29.32,11,4,11,0.12
2013-4-12,45.3,40.6,36.5,39.5,35.2,30.6,85,81,77,29.58,29.27,6,3,6,0.17
2013-4-13,55.2,50.3,40.3,45.5,39.2,33.9,84,67,45,29.64,29.31,24,7,24,0.06
2013-4-14,59.4,52.5,46.8,46.7,44.1,41.8,87,73,56,29.40,29.29,24,11,24,0.20
2013-4-15,59.4,51.7,46.0,46.3,42.2,40.0,82,70,56,29.67,29.39,23,7,23,0.06
2013-4-16,54.7,49.5,45.5,42.2,38.8,34.5,75,67,51,29.80,29.26,25,11,25,0.06
2013-4-17,55.2,49.8,43.3,46.7,42.9,34.0,85,77,69,29.79,29.03,24,11,24,0.38
2013-4-18,52.9,47.9,43.9,42.8,39.2,35.7,86,72,60,29.88,29.02,27,12,27,0.09
2013-4-19,57.9,48.1,37.9,38.0,34.4,29.4,77,60,40,30.37,29.88,13,4,13,0.00
2013-4-20,59.7,49.8,41.9,41.0,37.9,33.2,78,64,48,30.37,30.06,16,5,16,0.01
2013-4-21,56.5,47.9,44.4,40.5,39.1,36.6,81,72,55,30.06,29.80,10,6,11,0.12
2013-4-22,54.9,49.8,44.6,44.8,40.4,37.0,83,70,54,29.80,29.58,24,11,24,0.02
2013-4-23,57.4,50.5,46.9,41.0,39.0,37.3,75,65,52,30.02,29.70,24,10,24,0.00
2013-4-24,48.9,48.1,47.1,41.3,40.5,39.2,80,75,69,29.99,29.88,5,1,6,0.04
2013-4-25,54.5,47.5,41.4,40.0,35.7,31.2,80,64,51,30.16,29.99,15,6,15,0.06
2013-4-26,55.4,46.0,40.6,36.9,33.6,28.8,77,63,42,30.00,29.81,21,7,21,0.04
2013-4-30,56.7,48.5,37.2,38.2,33.9,29.4,77,58,38,30.25,30.07,8,3,8,0.04
2013-5-1,55.8,48.7,42.3,42.9,36.0,29.5,78,63,38,30.21,30.04,14,6,14,0.06
2013-5-2,57.0,46.1,34.0,42.0,35.5,27.1,78,67,45,30.22,29.95,10,4,10,0.01
2013-5-3,52.3,48.8,43.3,45.3,42.4,34.9,84,79,72,29.94,29.64,17,7,17,0.31
2013-5-4,50.0,46.2,38.5,40.6,36.4,31.2,77,69,55,29.83,29.68,9,4,9,0.00
2013-5-5,61.9,53.3,47.1,48.7,44.6,40.8,82,73,61,29.97,29.83,11,4,11,0.00
2013-5-6,59.9,53.2,46.2,47.2,44.5,40.6,81,72,60,29.99,29.92,12,3,12,0.01
2013-5-7,77.5,59.4,39.7,49.6,43.2,35.3,84,58,30,29.99,29.75,14,3,14,0.04
2013-5-8,61.2,56.1,49.8,50.9,45.2,37.7,79,67,48,29.75,29.36,24,8,24,0.00
2013-5-9,52.3,48.9,46.0,43.1,40.7,38.2,86,74,63,29.45,29.22,17,8,17,0.02
2013-5-10,56.5,48.6,44.1,47.6,43.0,39.7,88,81,62,29.58,29.34,17,4,17,0.11
2013-5-11,52.7,47.2,44.6,45.0,41.7,39.1,93,82,65,29.72,29.43,15,8,15,0.20
2013-5-12,52.0,47.8,44.1,47.6,42.3,36.1,87,81,71,29.74,29.56,14,7,14,0.08
2013-5-13,51.6,46.5,40.8,41.4,38.1,34.9,85,73,60,29.59,29.42,26,12,26,0.21
2013-5-14,56.7,47.9,41.4,42.5,39.4,35.8,87,73,56,29.42,29.30,22,7,22,0.17
2013-5-15,59.5,47.7,35.6,42.4,36.6,30.7,88,67,38,29.36,29.26,20,5,20,0.01
2013-5-16,62.1,48.4,43.2,39.5,37.5,34.3,79,67,36,29.61,29.36,9,4,10,0.00
2013-5-17,68.5,53.8,40.6,44.1,37.7,30.7,87,58,29,29.80,29.61,13,3,13,0.00
2013-5-18,56.5,51.4,46.8,53.6,47.8,39.3,95,88,63,29.80,29.61,15,3,15,0.41
2013-5-19,59.7,53.2,50.5,51.3,48.8,47.4,91,85,73,29.94,29.73,8,2,8,0.01
2013-5-20,67.5,58.2,52.3,54.9,50.6,46.7,89,77,60,29.98,29.89,16,4,16,0.00
2013-5-21,61.0,53.0,46.4,46.7,43.6,40.4,87,71,52,30.07,29.98,17,6,17,0.00
2013-5-22,58.1,50.5,41.0,42.9,38.5,32.9,83,65,42,30.08,30.00,24,7,24,0.02
2013-5-23,54.0,45.8,40.1,38.2,34.3,29.9,80,65,42,30.00,29.89,15,7,15,0.00
2013-5-24,64.2,52.9,41.2,38.6,34.7,30.9,75,53,30,30.14,29.88,13,6,13,0.00
2013-5-25,63.0,55.7,38.1,43.6,41.0,34.0,86,59,44,30.15,30.08,10,4,10,0.00
2013-5-26,63.0,53.5,44.8,48.6,43.9,38.2,83,70,54,30.08,29.66,12,4,12,0.00
2013-5-27,60.8,51.5,47.7,49.4,45.5,42.3,90,81,60,29.66,29.34,14,6,14,0.31
2013-5-28,62.2,52.0,42.4,48.5,44.0,38.6,88,75,46,29.70,29.43,13,3,13,0.04
2013-5-29,71.8,58.4,42.8,51.3,46.0,38.6,86,65,42,29.88,29.70,9,2,9,0.01
2013-5-30,73.4,60.4,51.8,51.0,47.3,43.7,80,63,44,30.04,29.85,10,3,10,0.01
2013-5-31,62.8,53.9,46.9,49.3,44.1,37.6,88,71,43,30.17,30.03,17,5,17,0.00
2013-6-1,61.2,51.9,43.2,50.2,42.3,37.9,88,71,44,30.28,30.15,15,4,15,0.00
2013-6-2,64.0,53.6,41.9,48.2,43.2,37.4,86,69,53,30.41,30.27,11,3,11,0.01
2013-6-3,70.3,57.8,51.8,55.5,50.2,45.5,87,76,56,30.45,30.39,8,2,8,0.01
2013-6-4,78.8,62.6,51.6,53.9,50.1,47.8,89,66,36,30.43,30.25,12,3,12,0.05
2013-6-5,71.8,60.4,52.7,55.6,50.7,45.9,82,71,46,30.26,30.09,9,2,9,0.04
2013-6-6,73.2,60.6,48.0,53.9,49.7,44.1,87,69,43,30.21,30.11,9,3,9,0.00
2013-6-7,79.0,62.9,47.8,54.1,49.0,44.3,88,63,38,30.25,30.21,10,3,10,0.00
2013-6-8,71.8,61.0,48.9,53.6,48.7,43.7,84,66,42,30.25,30.06,8,3,8,0.00
2013-6-9,76.8,61.5,48.7,53.3,49.0,44.8,88,65,39,30.07,29.24,11,3,11,0.01
2013-6-10,67.6,58.1,50.5,51.9,49.2,46.2,87,73,56,29.95,29.82,10,3,10,0.00
2013-6-11,59.5,56.7,50.0,53.7,51.5,45.7,90,83,66,29.83,29.59,13,5,13,0.15
2013-6-12,68.5,56.8,52.2,53.5,50.8,45.8,93,81,57,29.59,29.54,12,4,12,0.08
2013-6-13,61.2,53.9,48.9,47.0,45.6,43.3,87,74,53,29.76,29.52,14,4,14,0.00
2013-6-14,67.8,54.8,50.7,50.4,46.3,42.2,87,73,53,29.77,29.45,14,5,14,0.08
2013-6-15,54.3,50.4,47.7,49.4,46.4,44.0,89,86,81,29.55,29.28,17,8,17,0.34
2013-6-16,67.3,60.0,49.3,51.5,49.0,46.2,91,68,55,29.93,29.56,9,3,9,0.00
2013-6-17,74.3,60.4,51.1,52.0,49.1,46.1,86,68,43,30.00,29.93,8,2,8,0.00
2013-6-18,71.1,62.4,55.9,53.5,50.9,47.1,82,67,45,29.97,29.89,11,3,11,0.01
2013-6-19,66.9,59.5,52.2,50.7,48.7,46.1,86,69,49,29.98,29.92,11,3,11,0.00
2013-6-20,72.5,60.5,51.4,52.3,49.5,46.5,84,68,45,29.97,29.73,8,2,8,0.00
2013-6-21,68.2,59.6,56.1,54.8,52.0,46.4,90,77,49,29.75,29.70,12,3,12,0.00
2013-6-22,64.2,55.9,52.2,52.4,50.4,48.5,92,82,62,29.51,29.25,10,5,10,0.13
2013-6-23,62.6,56.3,51.6,51.2,47.3,43.9,89,72,65,29.95,29.36,21,8,21,0.04
2013-6-24,61.2,53.1,48.9,45.6,43.2,41.5,80,70,49,30.10,29.94,15,5,15,0.00
2013-6-25,66.0,56.7,47.8,52.8,48.1,42.3,83,73,57,30.35,30.22,8,3,8,0.00
2013-6-26,65.8,55.9,50.7,49.3,44.7,42.1,87,67,47,30.41,30.35,11,5,11,0.00
2013-6-27,59.2,54.1,51.3,54.4,49.6,43.2,91,85,72,30.38,30.12,13,4,13,0.12
2013-6-28,61.5,55.6,52.5,55.1,51.5,44.8,95,86,70,30.11,29.91,17,5,17,0.07
2013-6-29,60.1,55.2,51.1,53.5,49.1,44.8,89,80,71,30.10,30.04,14,5,14,0.00
2013-6-30,64.2,56.8,53.2,54.2,50.9,45.5,90,81,69,30.07,29.83,17,7,17,0.06
2013-7-1,63.1,56.3,50.7,49.0,45.1,41.8,85,67,48,29.87,29.80,12,5,12,0.05
2013-7-2,57.4,54.0,52.0,51.8,47.8,43.7,86,80,69,29.82,29.41,14,4,14,0.07
2013-7-3,72.5,60.8,52.2,51.1,47.3,43.9,77,62,44,28.81,28.63,8,3,8,0.01
2013-7-4,61.3,53.4,47.3,48.6,43.9,37.6,88,72,44,28.95,28.81,9,5,9,0.00
2013-7-5,61.0,52.2,43.2,47.9,42.4,39.0,88,71,45,29.06,28.93,11,4,11,0.00
2013-7-6,63.5,54.0,42.6,47.0,43.4,38.4,86,68,54,29.17,29.05,8,3,8,0.01
2013-7-7,70.0,57.8,51.8,54.5,50.1,45.5,86,76,56,29.23,29.16,5,2,5,0.01
2013-7-8,77.5,65.5,51.6,57.6,52.4,47.8,89,65,38,29.24,29.06,8,3,8,0.05
2013-7-9,81.0,72.5,57.6,71.8,67.4,53.7,100,84,64,30.45,29.17,17,4,17,0.00
2013-7-10,84.2,69.6,59.5,72.8,65.8,59.6,100,89,69,30.39,30.31,9,3,9,0.07
2013-7-11,74.7,66.1,57.2,69.9,64.3,57.2,100,94,82,30.34,30.23,9,2,9,0.00
2013-7-12,80.8,68.8,58.6,72.0,65.8,58.7,100,91,73,30.24,30.19,8,2,8,0.00
2013-7-13,73.2,64.8,55.4,66.9,62.0,55.3,100,91,72,30.28,30.21,12,4,12,0.00
2013-7-14,70.5,60.5,52.0,62.5,57.3,52.0,100,90,71,30.27,30.17,11,4,11,0.00
2013-7-15,71.8,60.3,50.4,66.7,59.5,50.4,100,97,81,30.19,30.15,11,3,11,0.00
2013-7-16,72.0,64.9,60.6,68.0,64.1,60.6,100,97,86,30.21,30.14,11,3,11,0.00
2013-7-17,77.4,67.4,59.5,67.9,64.1,59.6,100,90,69,30.30,30.20,9,2,9,0.00
2013-7-18,80.6,68.5,57.6,74.1,66.2,57.6,100,93,78,30.35,30.30,11,3,11,0.00
2013-7-19,91.8,73.7,54.3,73.0,65.9,54.3,100,79,49,30.33,30.24,8,2,8,0.00
2013-7-20,87.4,69.9,57.2,74.8,65.7,57.2,100,88,66,30.29,30.19,10,3,10,0.00
2013-7-21,81.5,67.0,58.3,69.6,63.1,58.3,100,89,66,30.21,30.04,13,4,13,0.00
2013-7-22,80.8,68.9,60.4,71.8,65.4,60.5,100,89,71,30.07,29.90,13,4,13,0.02
2013-7-23,70.3,64.5,60.8,70.4,64.5,60.8,100,100,98,29.91,29.80,12,3,12,0.28
2013-7-24,77.4,67.7,57.9,69.6,64.8,57.9,100,91,75,29.83,29.80,10,3,10,0.00
2013-7-25,76.8,66.3,60.3,70.6,64.9,60.3,100,96,77,29.83,29.73,9,2,9,0.33
2013-7-26,75.2,66.2,59.9,69.0,64.5,59.9,100,94,79,29.81,29.74,11,3,11,0.19
2013-7-27,78.8,65.7,54.0,68.7,62.6,54.0,100,90,69,29.80,29.58,8,2,8,0.00
2013-7-28,63.5,60.6,58.5,63.5,60.6,58.5,100,100,100,29.58,29.48,6,1,6,0.21
2013-7-29,72.5,63.8,56.3,68.6,62.8,56.3,100,97,84,29.70,29.54,11,4,11,0.00
2013-7-30,70.2,61.4,57.4,64.2,60.4,57.4,100,97,79,29.75,29.69,13,4,13,0.08
2013-7-31,68.7,61.3,54.0,64.1,59.1,54.0,100,93,72,29.83,29.66,10,3,10,0.09
2013-8-1,67.6,63.9,59.0,67.7,63.9,59.0,100,100,100,29.62,29.55,12,3,12,0.59
2013-8-2,74.8,68.2,63.0,67.2,64.8,61.7,100,90,73,29.56,29.45,18,7,18,0.01
2013-8-3,70.5,62.4,56.7,63.2,60.1,56.5,100,92,77,31.04,29.51,15,6,15,0.08
2013-8-4,77.5,66.8,57.2,64.6,61.8,57.0,100,85,61,31.05,30.45,11,4,11,0.02
2013-8-5,71.6,63.1,53.6,64.4,59.1,53.5,100,87,72,30.48,30.36,17,5,17,0.02
2013-8-6,69.3,60.2,53.1,63.2,58.1,53.1,100,93,78,30.56,30.47,11,4,11,0.00
2013-8-7,72.9,62.1,54.9,65.5,60.1,54.9,100,94,75,30.65,30.52,10,3,10,0.00
2013-8-8,76.3,61.5,49.5,65.5,58.3,49.5,100,90,65,30.64,30.48,14,3,14,0.00
2013-8-9,66.9,60.3,56.7,62.0,58.5,55.6,100,94,77,30.73,30.45,23,6,23,0.17
2013-8-10,66.2,58.8,54.3,60.7,57.3,54.3,100,95,78,30.74,30.57,12,4,12,0.00
2013-8-11,65.7,57.8,54.7,60.1,56.8,54.7,100,97,78,30.57,30.47,19,7,19,0.08
2013-8-12,65.8,58.5,54.0,59.7,56.7,53.7,100,94,79,30.66,30.43,17,7,17,0.01
2013-8-13,68.7,58.9,49.8,62.5,56.2,49.8,100,91,73,30.75,30.64,10,3,10,0.00
2013-8-14,71.8,61.5,55.9,65.6,60.9,56.0,100,98,80,30.74,30.52,11,3,11,0.02
2013-8-15,67.5,61.9,60.3,67.5,61.9,60.3,100,100,100,30.52,30.33,9,3,9,0.14
2013-8-16,70.2,62.2,54.0,66.5,61.3,54.0,100,97,86,30.46,30.35,11,4,11,0.02
2013-8-17,72.3,61.1,56.8,68.9,60.8,56.7,100,99,87,30.42,30.01,21,7,21,0.33
2013-8-18,63.9,57.6,53.6,60.4,56.4,53.6,100,96,84,30.40,30.07,20,9,20,0.04
2013-8-19,67.3,59.2,55.4,60.7,57.9,55.1,100,95,79,30.78,30.40,14,7,14,0.01
2013-8-20,69.1,60.6,57.4,65.2,60.3,57.4,100,99,87,30.84,30.71,11,4,11,0.05
2013-8-21,71.4,62.5,58.6,67.3,62.2,58.7,100,99,86,30.71,30.60,11,4,11,0.08
2013-8-22,77.4,64.2,57.7,70.2,62.6,57.8,100,95,75,30.70,30.56,11,2,11,0.00
2013-8-23,72.0,61.6,55.4,67.9,61.3,55.4,100,99,85,30.57,30.46,13,2,13,0.02
2013-8-24,72.0,61.1,51.3,62.4,58.0,51.1,100,90,68,30.57,30.49,10,3,10,0.02
2013-8-25,74.8,60.2,44.4,65.2,55.9,44.4,100,87,57,30.76,30.57,10,2,10,0.05
2013-8-26,69.6,60.0,51.8,64.9,58.8,51.8,100,96,80,30.77,30.71,8,2,8,0.00
2013-8-27,67.1,59.2,51.4,64.7,58.8,51.4,100,99,89,30.80,30.67,8,2,8,0.00
2013-8-28,66.7,54.6,43.7,59.7,52.6,43.7,100,93,78,30.81,30.69,9,2,9,0.00
2013-8-29,66.2,59.9,56.5,64.5,59.8,56.5,100,100,93,30.68,30.59,9,4,9,0.00
2013-8-30,67.6,59.5,54.0,65.9,59.0,50.2,100,98,86,30.70,30.46,17,6,17,0.01
2013-8-31,63.9,57.4,52.7,55.8,52.7,50.8,100,85,65,30.92,30.70,18,8,18,0.05
2013-9-1,60.4,58.4,54.9,59.0,57.8,54.9,100,98,90,30.92,30.76,22,12,22,0.01
2013-9-2,63.3,61.2,59.0,63.3,61.2,59.0,100,100,100,30.87,30.72,18,6,18,0.00
2013-9-3,70.2,62.8,58.1,67.0,61.9,58.1,100,97,81,30.86,30.77,11,4,11,0.00
2013-9-4,73.0,62.5,55.8,64.7,59.5,55.1,100,90,74,30.78,30.49,14,4,14,0.00
2013-9-5,66.4,57.6,45.9,60.1,54.2,45.9,100,89,67,30.52,30.47,12,3,12,0.00
2013-9-6,60.1,50.2,40.6,55.0,48.8,40.6,100,95,80,30.53,30.46,8,2,8,0.00
2013-9-7,59.9,51.2,45.5,58.0,51.0,45.5,100,99,88,30.50,30.31,14,4,14,0.00
2013-9-8,64.8,53.6,48.2,59.2,52.2,48.2,100,95,82,30.51,30.45,14,6,14,0.12
2013-9-9,63.3,53.7,47.1,59.1,53.0,47.1,100,98,84,30.75,30.53,5,2,5,0.01
2013-9-10,67.3,56.9,48.2,60.2,54.4,48.2,100,92,73,30.85,30.76,12,4,12,0.18
2013-9-11,60.8,56.6,53.8,60.8,56.6,53.8,100,100,100,30.84,30.67,7,3,7,0.01
2013-9-12,61.9,57.8,54.3,61.9,57.8,54.3,100,100,100,30.69,30.48,8,3,8,0.00
2013-9-13,58.5,52.6,46.6,56.3,51.8,46.6,100,97,83,30.67,30.61,8,2,8,0.00
2013-9-14,63.5,52.4,40.6,57.3,50.1,40.6,100,92,76,30.66,30.53,9,3,9,0.00
2013-9-15,60.6,51.8,45.0,59.4,51.0,45.0,100,97,78,30.50,29.83,26,11,26,0.00
2013-9-16,54.9,49.0,44.2,52.8,48.6,44.0,100,98,89,29.96,29.41,24,10,24,0.00
2013-9-17,51.6,50.2,48.7,51.4,49.6,48.7,100,98,92,29.43,29.35,20,9,20,0.00
2013-9-18,56.7,50.4,45.7,53.8,49.9,45.7,100,98,88,29.80,29.45,16,5,16,0.00
2013-9-19,59.9,52.1,46.8,59.7,52.1,46.8,100,100,97,29.84,29.51,18,5,18,0.00
2013-9-20,63.7,53.4,48.0,58.7,52.8,48.0,100,98,82,30.03,29.84,11,4,11,0.00
2013-10-5,65.3,57.4,53.8,61.0,56.9,53.8,100,98,86,30.13,29.89,8,4,8,0.01
2013-10-6,67.6,59.6,56.5,64.6,59.5,56.5,100,99,90,30.13,30.09,11,4,11,0.06
2013-10-7,67.8,61.5,59.5,64.4,61.1,59.5,100,99,88,30.12,30.03,11,5,11,0.01
2013-10-8,60.6,56.3,53.2,60.1,55.9,51.9,100,98,91,30.23,30.03,14,7,14,0.00
2013-10-9,53.4,50.1,42.8,52.7,47.7,40.4,100,92,77,30.23,30.05,15,8,15,0.00
2013-10-10,60.1,46.4,39.2,46.3,42.0,37.9,100,86,59,30.48,30.24,7,2,7,0.00
2013-10-11,54.0,48.4,36.3,49.2,45.8,35.0,100,91,83,30.52,30.44,11,3,11,0.00
2013-10-12,56.8,52.9,46.4,52.4,50.8,45.9,100,93,83,30.50,30.29,17,4,17,0.05
2013-10-13,55.8,50.3,44.1,53.0,49.5,44.1,100,97,89,30.29,30.05,10,3,10,0.00
2013-10-14,63.1,52.8,47.7,56.4,51.4,47.5,100,95,77,30.06,29.95,13,3,13,0.00
2013-10-15,59.9,50.5,42.3,54.0,49.4,42.3,100,96,80,30.00,29.92,6,2,6,0.00
2013-10-16,54.9,46.5,39.4,51.6,46.1,39.4,100,98,86,29.99,29.61,14,2,14,0.01
2013-10-17,56.1,50.4,44.8,56.1,50.4,44.8,100,100,100,29.98,29.67,8,2,8,0.00
2013-10-18,54.1,50.2,45.7,54.1,50.2,45.7,100,100,100,29.99,29.65,9,3,9,0.00
2013-10-19,61.5,55.8,53.1,61.5,55.7,53.1,100,100,99,29.65,29.45,7,3,7,0.00
2013-10-20,60.4,54.4,50.9,59.9,54.4,50.9,100,100,98,29.49,29.39,12,4,12,0.00
2013-10-21,56.8,54.0,52.0,56.9,54.0,52.0,100,100,99,29.53,29.27,11,3,11,0.00
2013-10-22,63.3,58.0,56.7,61.1,57.8,56.7,100,99,89,29.27,29.09,14,4,14,0.00
2013-10-23,57.7,53.3,48.2,57.8,52.0,45.5,100,96,76,29.64,29.01,22,8,22,0.00
2013-10-24,61.2,51.8,48.6,54.4,50.2,47.5,100,95,77,29.90,29.64,15,5,15,0.00
2013-10-25,64.8,53.5,47.7,61.6,53.4,47.7,100,99,88,29.83,29.33,14,4,14,0.00
2013-10-26,55.8,52.6,49.8,54.7,52.2,49.8,100,98,88,29.45,29.18,17,5,17,0.02
2013-10-27,54.7,51.9,49.8,54.4,51.5,49.6,100,98,94,29.18,28.88,21,8,21,0.00
2013-10-28,52.5,50.1,46.8,51.4,49.9,46.8,100,99,92,29.40,28.91,11,7,11,0.00
2013-10-29,52.3,47.7,43.9,49.8,46.8,43.6,100,97,89,29.92,29.41,17,7,17,0.00
2013-10-30,54.5,50.5,45.9,54.1,50.0,45.9,100,98,92,29.93,29.63,18,8,18,0.25
2013-10-31,55.9,50.2,46.0,52.3,49.3,45.8,100,96,87,29.85,29.63,23,8,23,0.24
2013-11-1,53.4,49.0,46.4,49.5,47.4,45.6,100,94,86,29.67,29.58,19,8,19,0.01
2013-11-2,47.3,43.2,38.8,46.9,43.2,38.8,100,100,98,29.58,28.88,24,6,24,0.40
2013-11-3,50.9,43.9,35.1,47.5,42.7,34.9,100,96,81,29.35,29.06,24,7,24,0.17
2013-11-4,55.9,38.6,31.1,49.6,37.4,31.1,100,96,75,29.40,29.24,8,1,8,0.01
2013-11-5,47.3,39.9,32.7,46.4,39.3,32.7,100,98,81,29.33,29.18,20,4,20,0.13
2013-11-6,48.2,45.4,41.2,47.5,44.9,41.2,100,98,91,29.43,29.28,20,7,20,0.17
2013-11-7,50.4,46.9,41.7,48.3,45.4,41.7,100,94,87,29.51,29.40,21,8,21,0.09
2013-11-8,52.9,45.4,38.8,48.6,44.4,38.8,100,97,84,29.59,29.48,15,5,15,0.07
2013-11-9,48.4,40.2,31.3,45.0,39.7,31.3,100,98,88,29.69,29.51,14,4,14,0.02
2013-11-10,53.8,39.2,31.1,45.5,38.0,30.9,100,96,71,30.11,29.69,9,2,9,0.02
2013-11-11,59.5,50.7,44.1,53.4,50.1,44.1,100,98,79,30.07,29.79,17,6,17,0.01
2013-11-12,52.2,48.4,44.1,50.1,46.4,43.9,100,93,77,30.42,30.07,16,8,16,0.06
2013-11-13,50.4,48.5,46.4,50.2,47.5,45.5,100,96,87,30.42,29.88,17,8,17,0.09
2013-11-14,49.1,45.1,42.3,47.8,42.3,39.7,100,90,82,30.53,29.90,22,4,22,0.05
2013-11-15,51.8,49.7,44.2,51.4,49.2,43.4,100,98,90,30.51,30.40,13,5,13,0.00
2013-11-16,54.1,50.4,42.4,52.7,50.3,42.4,100,100,94,30.41,30.26,15,6,15,0.01
2013-11-17,45.5,40.4,33.6,45.3,40.4,33.6,100,100,100,30.41,29.97,5,1,5,0.12
2013-11-18,49.5,41.4,34.7,46.1,41.0,34.7,100,99,88,29.95,29.81,7,2,7,0.00
2013-11-19,49.1,41.3,30.0,45.9,40.2,30.0,100,96,68,30.07,29.66,22,6,22,0.00
2013-11-20,49.6,42.6,37.8,47.3,39.7,32.9,100,90,76,29.86,29.46,27,8,27,0.00
2013-11-21,44.6,35.3,29.3,38.4,32.1,28.8,99,88,77,30.18,29.85,9,2,10,0.00
2013-11-22,52.5,32.5,24.6,40.7,30.4,24.1,100,92,64,30.31,30.17,4,1,4,0.00
2013-11-23,60.8,40.0,32.5,51.2,38.8,31.8,100,96,69,30.45,30.29,4,1,4,0.00
2013-11-24,43.0,37.0,31.8,43.0,37.0,31.8,100,100,100,30.71,30.45,4,0,4,0.00
2013-11-25,41.7,37.2,30.7,41.7,37.2,30.7,100,100,99,30.75,30.69,4,1,4,0.00
2013-11-26,51.6,48.1,39.7,51.6,48.1,39.6,100,100,100,30.74,30.58,11,4,11,0.00
2013-11-27,54.9,50.9,47.7,53.2,50.8,47.7,100,100,94,30.60,30.53,12,4,12,0.00
2013-11-28,59.0,46.4,41.0,51.8,45.8,41.0,100,98,74,30.62,28.71,13,2,13,0.00
2013-11-29,49.3,45.0,42.1,49.3,44.1,40.6,100,96,89,29.82,29.59,24,8,24,0.00
2013-11-30,48.7,44.6,37.6,48.7,44.3,37.4,100,99,93,29.85,29.75,14,4,14,0.00
2013-12-1,54.5,48.0,43.9,53.6,47.7,43.9,100,99,88,30.03,29.85,12,2,12,0.00
2013-12-2,48.2,47.0,46.0,48.0,46.5,43.9,100,98,90,30.03,29.78,16,5,16,0.00
2013-12-3,50.2,47.6,40.8,50.0,47.5,40.6,100,100,99,29.79,29.58,17,5,17,0.00
2013-12-4,50.4,43.8,39.4,46.2,42.0,38.9,100,93,79,29.77,29.56,21,6,21,0.00
2013-12-5,48.9,41.3,34.2,48.9,39.6,30.7,100,94,76,29.64,29.00,48,12,48,0.00
2013-12-6,39.9,37.2,34.7,36.4,33.8,29.6,100,88,76,29.78,29.64,15,3,15,0.00
2013-12-7,48.2,43.3,34.5,48.2,43.3,34.5,100,100,100,29.65,29.44,16,5,16,0.00
2013-12-8,53.2,51.2,48.9,53.2,51.2,48.9,100,100,100,29.43,29.32,17,7,17,0.15
2013-12-9,55.0,51.5,49.6,53.6,51.1,48.9,100,98,92,29.63,28.70,16,6,16,0.00
2013-12-10,54.0,52.6,46.8,54.0,51.8,46.8,100,97,91,30.13,28.90,19,7,19,2.08
2013-12-11,53.8,50.2,43.7,53.8,49.3,42.9,100,97,86,30.14,29.92,14,5,14,0.00
2013-12-12,56.3,54.0,50.4,56.3,53.7,46.3,100,99,85,29.92,29.81,18,6,18,0.13
2013-12-13,54.9,51.3,45.1,54.7,50.6,42.5,100,97,90,29.82,29.62,21,7,21,0.06
2013-12-14,52.3,48.3,42.4,52.2,47.6,40.6,100,97,90,29.85,29.33,28,10,28,0.24
2013-12-15,52.0,46.4,42.6,50.6,45.5,41.1,100,97,87,29.75,29.45,23,7,23,0.14
2013-12-16,49.3,45.8,41.2,48.4,42.9,39.7,100,90,78,29.91,29.41,20,8,20,0.02
2013-12-17,50.0,45.1,41.0,45.0,42.5,39.9,98,90,81,29.98,29.60,20,7,20,0.00
2013-12-18,52.9,49.5,45.0,52.9,48.7,42.0,100,97,86,29.59,28.62,29,10,29,0.11
2013-12-19,45.0,41.8,38.1,42.7,39.9,37.8,100,93,86,29.43,28.74,28,11,28,0.00
2013-12-20,51.3,45.8,40.1,51.3,45.6,39.6,100,99,95,29.63,29.28,26,11,26,0.00
2013-12-21,49.3,46.8,43.7,48.6,45.1,40.7,100,94,89,29.39,29.18,24,10,24,0.02
2013-12-22,44.1,41.7,37.0,42.4,40.2,37.0,100,94,86,29.46,27.83,22,10,22,0.02
2013-12-23,50.9,44.7,38.8,50.5,44.0,38.8,100,98,92,29.44,28.17,21,8,21,0.05
2013-12-24,50.2,42.5,39.9,49.4,40.0,36.5,100,91,81,28.30,28.15,30,14,30,0.07
2013-12-25,48.2,44.5,41.2,44.3,42.7,40.6,100,94,84,28.98,28.40,21,10,21,0.13
2013-12-26,51.3,41.8,37.4,50.7,41.6,37.4,100,99,92,30.16,28.98,27,7,27,0.04
2013-12-27,48.6,45.5,40.1,47.3,43.5,39.3,100,93,76,29.27,27.91,29,12,29,0.31
2013-12-28,45.1,43.2,41.4,41.3,39.2,37.3,93,86,74,29.43,28.74,21,7,21,0.06
2013-12-29,49.3,44.2,41.2,48.0,40.6,36.7,96,87,76,29.70,29.33,17,6,17,0.26
2013-12-30,49.6,43.7,40.3,48.5,42.6,38.0,100,96,89,29.52,29.21,17,4,17,0.40
2013-12-31,48.7,43.9,39.7,43.8,40.1,37.2,94,86,77,29.47,29.10,22,7,22,0.02
2014-1-1,46.6,41.9,37.9,46.0,40.0,36.9,99,93,85,29.17,28.54,17,4,17,0.24
2014-1-2,46.2,44.5,41.5,43.2,41.8,39.6,98,90,85,29.03,28.67,18,6,18,0.05